Year,Month,Day,Hour,Minute,Value (Times are PST for temperature in C)
2013,09,11,00,00,16.80
2013,09,11,00,01,16.80
2013,09,11,00,02,16.80
2013,09,11,00,03,16.80
2013,09,11,00,04,16.80
2013,09,11,00,05,16.80
2013,09,11,00,06,16.80
2013,09,11,00,07,16.80
2013,09,11,00,08,16.80
2013,09,11,00,09,16.80
2013,09,11,00,10,16.80
2013,09,11,00,11,16.80
2013,09,11,00,12,16.70
2013,09,11,00,13,16.70
2013,09,11,00,14,16.70
2013,09,11,00,15,16.70
2013,09,11,00,16,16.70
2013,09,11,00,17,16.70
2013,09,11,00,18,16.70
2013,09,11,00,19,16.70
2013,09,11,00,20,16.70
2013,09,11,00,21,16.70
2013,09,11,00,22,16.70
2013,09,11,00,23,16.70
2013,09,11,00,24,16.70
2013,09,11,00,25,16.70
2013,09,11,00,26,16.70
2013,09,11,00,27,16.60
2013,09,11,00,28,16.60
2013,09,11,00,29,16.60
2013,09,11,00,30,16.60
2013,09,11,00,31,16.60
2013,09,11,00,32,16.50
2013,09,11,00,33,16.40
2013,09,11,00,34,16.40
2013,09,11,00,35,16.40
2013,09,11,00,36,16.40
2013,09,11,00,37,16.40
2013,09,11,00,38,16.40
2013,09,11,00,39,16.40
2013,09,11,00,40,16.40
2013,09,11,00,41,16.40
2013,09,11,00,42,16.40
2013,09,11,00,43,16.40
2013,09,11,00,44,16.40
2013,09,11,00,45,16.40
2013,09,11,00,46,16.40
2013,09,11,00,47,16.40
2013,09,11,00,48,16.40
2013,09,11,00,49,16.40
2013,09,11,00,50,16.40
2013,09,11,00,51,16.40
2013,09,11,00,52,16.40
2013,09,11,00,53,16.40
2013,09,11,00,54,16.40
2013,09,11,00,55,16.40
2013,09,11,00,56,16.40
2013,09,11,00,57,16.40
2013,09,11,00,58,16.40
2013,09,11,00,59,16.30
2013,09,11,01,00,16.30
2013,09,11,01,01,16.30
2013,09,11,01,02,16.30
2013,09,11,01,03,16.30
2013,09,11,01,04,16.30
2013,09,11,01,05,16.30
2013,09,11,01,06,16.30
2013,09,11,01,07,16.30
2013,09,11,01,08,16.30
2013,09,11,01,09,16.20
2013,09,11,01,10,16.20
2013,09,11,01,11,16.20
2013,09,11,01,12,16.20
2013,09,11,01,13,16.20
2013,09,11,01,14,16.20
2013,09,11,01,15,16.20
2013,09,11,01,16,16.20
2013,09,11,01,17,16.20
2013,09,11,01,18,16.30
2013,09,11,01,19,16.30
2013,09,11,01,20,16.30
2013,09,11,01,21,16.30
2013,09,11,01,22,16.40
2013,09,11,01,23,16.40
2013,09,11,01,24,16.40
2013,09,11,01,25,16.40
2013,09,11,01,26,16.40
2013,09,11,01,27,16.40
2013,09,11,01,28,16.40
2013,09,11,01,29,16.50
2013,09,11,01,30,16.60
2013,09,11,01,31,16.60
2013,09,11,01,32,16.60
2013,09,11,01,33,16.60
2013,09,11,01,34,16.70
2013,09,11,01,35,16.70
2013,09,11,01,36,16.70
2013,09,11,01,37,16.70
2013,09,11,01,38,16.70
2013,09,11,01,39,16.70
2013,09,11,01,40,16.70
2013,09,11,01,41,16.70
2013,09,11,01,42,16.70
2013,09,11,01,43,16.60
2013,09,11,01,44,16.60
2013,09,11,01,45,16.60
2013,09,11,01,46,16.60
2013,09,11,01,47,16.60
2013,09,11,01,48,16.60
2013,09,11,01,49,16.60
2013,09,11,01,50,16.60
2013,09,11,01,51,16.60
2013,09,11,01,52,16.60
2013,09,11,01,53,16.60
2013,09,11,01,54,16.60
2013,09,11,01,55,16.60
2013,09,11,01,56,16.60
2013,09,11,01,57,16.60
2013,09,11,01,58,16.50
2013,09,11,01,59,16.40
2013,09,11,02,00,16.40
2013,09,11,02,01,16.40
2013,09,11,02,02,16.30
2013,09,11,02,03,16.30
2013,09,11,02,04,16.20
2013,09,11,02,05,16.20
2013,09,11,02,06,16.10
2013,09,11,02,07,16.10
2013,09,11,02,08,16.10
2013,09,11,02,09,16.10
2013,09,11,02,10,15.90
2013,09,11,02,11,15.90
2013,09,11,02,12,15.80
2013,09,11,02,13,15.80
2013,09,11,02,14,15.80
2013,09,11,02,15,15.80
2013,09,11,02,16,15.70
2013,09,11,02,17,15.70
2013,09,11,02,18,15.60
2013,09,11,02,19,15.60
2013,09,11,02,20,15.50
2013,09,11,02,21,15.50
2013,09,11,02,22,15.40
2013,09,11,02,23,15.40
2013,09,11,02,24,15.40
2013,09,11,02,25,15.40
2013,09,11,02,26,15.40
2013,09,11,02,27,15.40
2013,09,11,02,28,15.40
2013,09,11,02,29,15.40
2013,09,11,02,30,15.40
2013,09,11,02,31,15.40
2013,09,11,02,32,15.40
2013,09,11,02,33,15.40
2013,09,11,02,34,15.50
2013,09,11,02,35,15.50
2013,09,11,02,36,15.50
2013,09,11,02,37,15.50
2013,09,11,02,38,15.50
2013,09,11,02,39,15.50
2013,09,11,02,40,15.50
2013,09,11,02,41,15.50
2013,09,11,02,42,15.60
2013,09,11,02,43,15.60
2013,09,11,02,44,15.60
2013,09,11,02,45,15.60
2013,09,11,02,46,15.70
2013,09,11,02,47,15.70
2013,09,11,02,48,15.70
2013,09,11,02,49,15.80
2013,09,11,02,50,15.80
2013,09,11,02,51,15.80
2013,09,11,02,52,15.80
2013,09,11,02,53,15.80
2013,09,11,02,54,15.90
2013,09,11,02,55,15.90
2013,09,11,02,56,16.00
2013,09,11,02,57,16.10
2013,09,11,02,58,16.10
2013,09,11,02,59,16.10
2013,09,11,03,00,16.20
2013,09,11,03,01,16.30
2013,09,11,03,02,16.30
2013,09,11,03,03,16.40
2013,09,11,03,04,16.40
2013,09,11,03,05,16.40
2013,09,11,03,06,16.40
2013,09,11,03,07,16.40
2013,09,11,03,08,16.40
2013,09,11,03,09,16.40
2013,09,11,03,10,16.40
2013,09,11,03,11,16.50
2013,09,11,03,12,16.60
2013,09,11,03,13,16.60
2013,09,11,03,14,16.60
2013,09,11,03,15,16.70
2013,09,11,03,16,16.70
2013,09,11,03,17,16.70
2013,09,11,03,18,16.70
2013,09,11,03,19,16.80
2013,09,11,03,20,16.80
2013,09,11,03,21,16.80
2013,09,11,03,22,16.80
2013,09,11,03,23,16.80
2013,09,11,03,24,16.80
2013,09,11,03,25,16.80
2013,09,11,03,26,16.70
2013,09,11,03,27,16.70
2013,09,11,03,28,16.70
2013,09,11,03,29,16.70
2013,09,11,03,30,16.70
2013,09,11,03,31,16.70
2013,09,11,03,32,16.70
2013,09,11,03,33,16.70
2013,09,11,03,34,16.70
2013,09,11,03,35,16.70
2013,09,11,03,36,16.70
2013,09,11,03,37,16.70
2013,09,11,03,38,16.60
2013,09,11,03,39,16.60
2013,09,11,03,40,16.60
2013,09,11,03,41,16.60
2013,09,11,03,42,16.50
2013,09,11,03,43,16.40
2013,09,11,03,44,16.40
2013,09,11,03,45,16.40
2013,09,11,03,46,16.40
2013,09,11,03,47,16.40
2013,09,11,03,48,16.40
2013,09,11,03,49,16.40
2013,09,11,03,50,16.40
2013,09,11,03,51,16.40
2013,09,11,03,52,16.40
2013,09,11,03,53,16.40
2013,09,11,03,54,16.40
2013,09,11,03,55,16.40
2013,09,11,03,56,16.40
2013,09,11,03,57,16.40
2013,09,11,03,58,16.60
2013,09,11,03,59,16.60
2013,09,11,04,00,16.60
2013,09,11,04,01,16.60
2013,09,11,04,02,16.60
2013,09,11,04,03,16.70
2013,09,11,04,04,16.70
2013,09,11,04,05,16.70
2013,09,11,04,06,16.70
2013,09,11,04,07,16.80
2013,09,11,04,08,16.80
2013,09,11,04,09,16.80
2013,09,11,04,10,16.90
2013,09,11,04,11,16.90
2013,09,11,04,12,16.90
2013,09,11,04,13,16.90
2013,09,11,04,14,16.90
2013,09,11,04,15,16.90
2013,09,11,04,16,16.90
2013,09,11,04,17,17.00
2013,09,11,04,18,17.00
2013,09,11,04,19,17.00
2013,09,11,04,20,17.10
2013,09,11,04,21,17.10
2013,09,11,04,22,17.10
2013,09,11,04,23,17.10
2013,09,11,04,24,17.20
2013,09,11,04,25,17.20
2013,09,11,04,26,17.20
2013,09,11,04,27,17.20
2013,09,11,04,28,17.10
2013,09,11,04,29,17.10
2013,09,11,04,30,17.10
2013,09,11,04,31,17.10
2013,09,11,04,32,17.00
2013,09,11,04,33,17.00
2013,09,11,04,34,17.00
2013,09,11,04,35,17.00
2013,09,11,04,36,16.90
2013,09,11,04,37,16.90
2013,09,11,04,38,16.90
2013,09,11,04,39,16.90
2013,09,11,04,40,16.90
2013,09,11,04,41,16.80
2013,09,11,04,42,16.80
2013,09,11,04,43,16.80
2013,09,11,04,44,16.80
2013,09,11,04,45,16.80
2013,09,11,04,46,16.90
2013,09,11,04,47,16.90
2013,09,11,04,48,17.00
2013,09,11,04,49,17.20
2013,09,11,04,50,17.30
2013,09,11,04,51,17.30
2013,09,11,04,52,17.30
2013,09,11,04,53,17.40
2013,09,11,04,54,17.50
2013,09,11,04,55,17.50
2013,09,11,04,56,17.60
2013,09,11,04,57,17.60
2013,09,11,04,58,17.60
2013,09,11,04,59,17.70
2013,09,11,05,00,17.70
2013,09,11,05,01,17.70
2013,09,11,05,02,17.70
2013,09,11,05,03,17.80
2013,09,11,05,04,17.80
2013,09,11,05,05,17.80
2013,09,11,05,06,17.80
2013,09,11,05,07,17.80
2013,09,11,05,08,17.70
2013,09,11,05,09,17.70
2013,09,11,05,10,17.70
2013,09,11,05,11,17.60
2013,09,11,05,12,17.60
2013,09,11,05,13,17.50
2013,09,11,05,14,17.50
2013,09,11,05,15,17.40
2013,09,11,05,16,17.40
2013,09,11,05,17,17.30
2013,09,11,05,18,17.30
2013,09,11,05,19,17.20
2013,09,11,05,20,17.10
2013,09,11,05,21,17.10
2013,09,11,05,22,17.10
2013,09,11,05,23,17.00
2013,09,11,05,24,17.00
2013,09,11,05,25,17.00
2013,09,11,05,26,16.90
2013,09,11,05,27,16.90
2013,09,11,05,28,16.90
2013,09,11,05,29,16.90
2013,09,11,05,30,16.80
2013,09,11,05,31,16.80
2013,09,11,05,32,16.80
2013,09,11,05,33,16.80
2013,09,11,05,34,16.80
2013,09,11,05,35,16.80
2013,09,11,05,36,16.80
2013,09,11,05,37,16.70
2013,09,11,05,38,16.70
2013,09,11,05,39,16.70
2013,09,11,05,40,16.80
2013,09,11,05,41,16.90
2013,09,11,05,42,16.90
2013,09,11,05,43,17.00
2013,09,11,05,44,17.00
2013,09,11,05,45,17.00
2013,09,11,05,46,17.10
2013,09,11,05,47,17.00
2013,09,11,05,48,17.00
2013,09,11,05,49,17.00
2013,09,11,05,50,17.00
2013,09,11,05,51,17.00
2013,09,11,05,52,17.00
2013,09,11,05,53,17.00
2013,09,11,05,54,17.00
2013,09,11,05,55,17.00
2013,09,11,05,56,17.00
2013,09,11,05,57,17.00
2013,09,11,05,58,17.00
2013,09,11,05,59,17.00
2013,09,11,06,00,17.00
2013,09,11,06,01,17.10
2013,09,11,06,02,17.10
2013,09,11,06,03,17.10
2013,09,11,06,04,17.10
2013,09,11,06,05,17.20
2013,09,11,06,06,17.20
2013,09,11,06,07,17.20
2013,09,11,06,08,17.20
2013,09,11,06,09,17.20
2013,09,11,06,10,17.20
2013,09,11,06,11,17.20
2013,09,11,06,12,17.20
2013,09,11,06,13,17.20
2013,09,11,06,14,17.20
2013,09,11,06,15,17.20
2013,09,11,06,16,17.30
2013,09,11,06,17,17.30
2013,09,11,06,18,17.30
2013,09,11,06,19,17.30
2013,09,11,06,20,17.30
2013,09,11,06,21,17.30
2013,09,11,06,22,17.30
2013,09,11,06,23,17.30
2013,09,11,06,24,17.30
2013,09,11,06,25,17.30
2013,09,11,06,26,17.30
2013,09,11,06,27,17.30
2013,09,11,06,28,17.30
2013,09,11,06,29,17.30
2013,09,11,06,30,17.20
2013,09,11,06,31,17.20
2013,09,11,06,32,17.20
2013,09,11,06,33,17.20
2013,09,11,06,34,17.20
2013,09,11,06,35,17.20
2013,09,11,06,36,17.20
2013,09,11,06,37,17.20
2013,09,11,06,38,17.20
2013,09,11,06,39,17.20
2013,09,11,06,40,17.20
2013,09,11,06,41,17.20
2013,09,11,06,42,17.20
2013,09,11,06,43,17.20
2013,09,11,06,44,17.20
2013,09,11,06,45,17.20
2013,09,11,06,46,17.20
2013,09,11,06,47,17.20
2013,09,11,06,48,17.20
2013,09,11,06,49,17.20
2013,09,11,06,50,17.20
2013,09,11,06,51,17.10
2013,09,11,06,52,17.10
2013,09,11,06,53,17.10
2013,09,11,06,54,17.20
2013,09,11,06,55,17.20
2013,09,11,06,56,17.20
2013,09,11,06,57,17.20
2013,09,11,06,58,17.20
2013,09,11,06,59,17.30
2013,09,11,07,00,17.30
2013,09,11,07,01,17.30
2013,09,11,07,02,17.30
2013,09,11,07,03,17.30
2013,09,11,07,04,17.30
2013,09,11,07,05,17.30
2013,09,11,07,06,17.40
2013,09,11,07,07,17.40
2013,09,11,07,08,17.50
2013,09,11,07,09,17.50
2013,09,11,07,10,17.60
2013,09,11,07,11,17.60
2013,09,11,07,12,17.60
2013,09,11,07,13,17.70
2013,09,11,07,14,17.70
2013,09,11,07,15,17.80
2013,09,11,07,16,17.80
2013,09,11,07,17,17.80
2013,09,11,07,18,17.90
2013,09,11,07,19,17.90
2013,09,11,07,20,17.90
2013,09,11,07,21,17.90
2013,09,11,07,22,17.90
2013,09,11,07,23,17.90
2013,09,11,07,24,17.90
2013,09,11,07,25,17.90
2013,09,11,07,26,17.90
2013,09,11,07,27,17.90
2013,09,11,07,28,17.90
2013,09,11,07,29,17.90
2013,09,11,07,30,17.90
2013,09,11,07,31,17.90
2013,09,11,07,32,17.90
2013,09,11,07,33,17.90
2013,09,11,07,34,17.90
2013,09,11,07,35,18.00
2013,09,11,07,36,18.10
2013,09,11,07,37,18.10
2013,09,11,07,38,18.10
2013,09,11,07,39,18.10
2013,09,11,07,40,18.10
2013,09,11,07,41,18.10
2013,09,11,07,42,18.10
2013,09,11,07,43,18.20
2013,09,11,07,44,18.20
2013,09,11,07,45,18.20
2013,09,11,07,46,18.30
2013,09,11,07,47,18.40
2013,09,11,07,48,18.40
2013,09,11,07,49,18.40
2013,09,11,07,50,18.50
2013,09,11,07,51,18.60
2013,09,11,07,52,18.60
2013,09,11,07,53,18.70
2013,09,11,07,54,18.70
2013,09,11,07,55,18.80
2013,09,11,07,56,18.80
2013,09,11,07,57,18.80
2013,09,11,07,58,18.80
2013,09,11,07,59,18.90
2013,09,11,08,00,18.90
2013,09,11,08,01,18.90
2013,09,11,08,02,18.90
2013,09,11,08,03,18.90
2013,09,11,08,04,18.90
2013,09,11,08,05,18.90
2013,09,11,08,06,18.90
2013,09,11,08,07,19.00
2013,09,11,08,08,19.10
2013,09,11,08,09,19.10
2013,09,11,08,10,19.10
2013,09,11,08,11,19.10
2013,09,11,08,12,19.10
2013,09,11,08,13,19.10
2013,09,11,08,14,19.10
2013,09,11,08,15,19.10
2013,09,11,08,16,19.10
2013,09,11,08,17,19.20
2013,09,11,08,18,19.20
2013,09,11,08,19,19.20
2013,09,11,08,20,19.20
2013,09,11,08,21,19.20
2013,09,11,08,22,19.20
2013,09,11,08,23,19.20
2013,09,11,08,24,19.20
2013,09,11,08,25,19.20
2013,09,11,08,26,19.20
2013,09,11,08,27,19.30
2013,09,11,08,28,19.30
2013,09,11,08,29,19.40
2013,09,11,08,30,19.40
2013,09,11,08,31,19.40
2013,09,11,08,32,19.50
2013,09,11,08,33,19.60
2013,09,11,08,34,19.60
2013,09,11,08,35,19.70
2013,09,11,08,36,19.80
2013,09,11,08,37,19.90
2013,09,11,08,38,19.90
2013,09,11,08,39,19.90
2013,09,11,08,40,19.90
2013,09,11,08,41,19.90
2013,09,11,08,42,20.10
2013,09,11,08,43,20.10
2013,09,11,08,44,20.10
2013,09,11,08,45,20.20
2013,09,11,08,46,20.20
2013,09,11,08,47,20.20
2013,09,11,08,48,20.30
2013,09,11,08,49,20.40
2013,09,11,08,50,20.50
2013,09,11,08,51,20.50
2013,09,11,08,52,20.60
2013,09,11,08,53,20.60
2013,09,11,08,54,20.70
2013,09,11,08,55,20.70
2013,09,11,08,56,20.80
2013,09,11,08,57,20.90
2013,09,11,08,58,21.00
2013,09,11,08,59,21.00
2013,09,11,09,00,21.10
2013,09,11,09,01,21.20
2013,09,11,09,02,21.30
2013,09,11,09,03,21.30
2013,09,11,09,04,21.30
2013,09,11,09,05,21.40
2013,09,11,09,06,21.50
2013,09,11,09,07,21.60
2013,09,11,09,08,21.60
2013,09,11,09,09,21.70
2013,09,11,09,10,21.80
2013,09,11,09,11,21.90
2013,09,11,09,12,21.90
2013,09,11,09,13,22.00
2013,09,11,09,14,22.00
2013,09,11,09,15,22.20
2013,09,11,09,16,22.20
2013,09,11,09,17,22.30
2013,09,11,09,18,22.40
2013,09,11,09,19,22.50
2013,09,11,09,20,22.60
2013,09,11,09,21,22.60
2013,09,11,09,22,22.70
2013,09,11,09,23,22.70
2013,09,11,09,24,22.80
2013,09,11,09,25,22.90
2013,09,11,09,26,22.90
2013,09,11,09,27,22.90
2013,09,11,09,28,23.10
2013,09,11,09,29,23.10
2013,09,11,09,30,23.20
2013,09,11,09,31,23.30
2013,09,11,09,32,23.30
2013,09,11,09,33,23.40
2013,09,11,09,34,23.50
2013,09,11,09,35,23.60
2013,09,11,09,36,23.70
2013,09,11,09,37,23.70
2013,09,11,09,38,23.70
2013,09,11,09,39,23.70
2013,09,11,09,40,23.70
2013,09,11,09,41,23.70
2013,09,11,09,42,23.70
2013,09,11,09,43,23.70
2013,09,11,09,44,23.70
2013,09,11,09,45,23.70
2013,09,11,09,46,23.70
2013,09,11,09,47,23.70
2013,09,11,09,48,23.70
2013,09,11,09,49,23.80
2013,09,11,09,50,23.80
2013,09,11,09,51,23.80
2013,09,11,09,52,23.80
2013,09,11,09,53,23.70
2013,09,11,09,54,23.70
2013,09,11,09,55,23.70
2013,09,11,09,56,23.70
2013,09,11,09,57,23.80
2013,09,11,09,58,23.80
2013,09,11,09,59,23.90
2013,09,11,10,00,24.00
2013,09,11,10,01,24.10
2013,09,11,10,02,24.10
2013,09,11,10,03,24.20
2013,09,11,10,04,24.30
2013,09,11,10,05,24.40
2013,09,11,10,06,24.50
2013,09,11,10,07,24.50
2013,09,11,10,08,24.60
2013,09,11,10,09,24.70
2013,09,11,10,10,24.70
2013,09,11,10,11,24.70
2013,09,11,10,12,24.80
2013,09,11,10,13,24.90
2013,09,11,10,14,24.90
2013,09,11,10,15,24.90
2013,09,11,10,16,25.00
2013,09,11,10,17,25.00
2013,09,11,10,18,25.00
2013,09,11,10,19,25.00
2013,09,11,10,20,25.00
2013,09,11,10,21,25.00
2013,09,11,10,22,25.00
2013,09,11,10,23,24.90
2013,09,11,10,24,24.90
2013,09,11,10,25,24.90
2013,09,11,10,26,24.90
2013,09,11,10,27,24.90
2013,09,11,10,28,24.90
2013,09,11,10,29,25.00
2013,09,11,10,30,25.00
2013,09,11,10,31,24.90
2013,09,11,10,32,24.90
2013,09,11,10,33,24.80
2013,09,11,10,34,24.80
2013,09,11,10,35,24.80
2013,09,11,10,36,24.80
2013,09,11,10,37,24.70
2013,09,11,10,38,24.70
2013,09,11,10,39,24.70
2013,09,11,10,40,24.70
2013,09,11,10,41,24.70
2013,09,11,10,42,24.80
2013,09,11,10,43,24.80
2013,09,11,10,44,24.80
2013,09,11,10,45,24.90
2013,09,11,10,46,24.80
2013,09,11,10,47,24.80
2013,09,11,10,48,24.90
2013,09,11,10,49,24.90
2013,09,11,10,50,25.10
2013,09,11,10,51,25.20
2013,09,11,10,52,25.20
2013,09,11,10,53,25.30
2013,09,11,10,54,25.40
2013,09,11,10,55,25.50
2013,09,11,10,56,25.50
2013,09,11,10,57,25.60
2013,09,11,10,58,25.60
2013,09,11,10,59,25.60
2013,09,11,11,00,25.60
2013,09,11,11,01,25.60
2013,09,11,11,02,25.60
2013,09,11,11,03,25.70
2013,09,11,11,04,25.70
2013,09,11,11,05,25.80
2013,09,11,11,06,25.80
2013,09,11,11,07,25.80
2013,09,11,11,08,25.80
2013,09,11,11,09,25.80
2013,09,11,11,10,25.80
2013,09,11,11,11,25.70
2013,09,11,11,12,25.70
2013,09,11,11,13,25.80
2013,09,11,11,14,25.80
2013,09,11,11,15,25.80
2013,09,11,11,16,25.90
2013,09,11,11,17,25.90
2013,09,11,11,18,25.90
2013,09,11,11,19,25.80
2013,09,11,11,20,25.90
2013,09,11,11,21,25.90
2013,09,11,11,22,26.00
2013,09,11,11,23,26.00
2013,09,11,11,24,26.00
2013,09,11,11,25,26.00
2013,09,11,11,26,26.00
2013,09,11,11,27,26.00
2013,09,11,11,28,26.20
2013,09,11,11,29,26.20
2013,09,11,11,30,26.20
2013,09,11,11,31,26.20
2013,09,11,11,32,26.20
2013,09,11,11,33,26.10
2013,09,11,11,34,26.00
2013,09,11,11,35,25.90
2013,09,11,11,36,25.90
2013,09,11,11,37,25.90
2013,09,11,11,38,25.90
2013,09,11,11,39,26.00
2013,09,11,11,40,26.00
2013,09,11,11,41,26.10
2013,09,11,11,42,26.10
2013,09,11,11,43,26.10
2013,09,11,11,44,26.20
2013,09,11,11,45,26.20
2013,09,11,11,46,26.30
2013,09,11,11,47,26.30
2013,09,11,11,48,26.40
2013,09,11,11,49,26.40
2013,09,11,11,50,26.40
2013,09,11,11,51,26.40
2013,09,11,11,52,26.40
2013,09,11,11,53,26.40
2013,09,11,11,54,26.30
2013,09,11,11,55,26.30
2013,09,11,11,56,26.30
2013,09,11,11,57,26.30
2013,09,11,11,58,26.30
2013,09,11,11,59,26.30
2013,09,11,12,00,26.40
2013,09,11,12,01,26.40
2013,09,11,12,02,26.40
2013,09,11,12,03,26.50
2013,09,11,12,04,26.60
2013,09,11,12,05,26.60
2013,09,11,12,06,26.60
2013,09,11,12,07,26.70
2013,09,11,12,08,26.80
2013,09,11,12,09,26.80
2013,09,11,12,10,26.90
2013,09,11,12,11,26.90
2013,09,11,12,12,26.90
2013,09,11,12,13,26.90
2013,09,11,12,14,26.90
2013,09,11,12,15,26.90
2013,09,11,12,16,26.90
2013,09,11,12,17,26.80
2013,09,11,12,18,26.70
2013,09,11,12,19,26.80
2013,09,11,12,20,26.90
2013,09,11,12,21,26.90
2013,09,11,12,22,26.90
2013,09,11,12,23,26.90
2013,09,11,12,24,27.00
2013,09,11,12,25,27.10
2013,09,11,12,26,27.10
2013,09,11,12,27,27.10
2013,09,11,12,28,27.10
2013,09,11,12,29,27.10
2013,09,11,12,30,27.10
2013,09,11,12,31,27.10
2013,09,11,12,32,27.20
2013,09,11,12,33,27.20
2013,09,11,12,34,27.30
2013,09,11,12,35,27.30
2013,09,11,12,36,27.40
2013,09,11,12,37,27.50
2013,09,11,12,38,27.60
2013,09,11,12,39,27.60
2013,09,11,12,40,27.70
2013,09,11,12,41,27.80
2013,09,11,12,42,27.90
2013,09,11,12,43,27.90
2013,09,11,12,44,28.00
2013,09,11,12,45,28.00
2013,09,11,12,46,28.10
2013,09,11,12,47,28.10
2013,09,11,12,48,27.90
2013,09,11,12,49,27.80
2013,09,11,12,50,27.70
2013,09,11,12,51,27.70
2013,09,11,12,52,27.60
2013,09,11,12,53,27.70
2013,09,11,12,54,27.70
2013,09,11,12,55,27.60
2013,09,11,12,56,27.60
2013,09,11,12,57,27.70
2013,09,11,12,58,27.70
2013,09,11,12,59,27.70
2013,09,11,13,00,27.70
2013,09,11,13,01,27.70
2013,09,11,13,02,27.70
2013,09,11,13,03,27.70
2013,09,11,13,04,27.80
2013,09,11,13,05,27.80
2013,09,11,13,06,27.80
2013,09,11,13,07,27.70
2013,09,11,13,08,27.70
2013,09,11,13,09,27.70
2013,09,11,13,10,27.80
2013,09,11,13,11,27.90
2013,09,11,13,12,27.80
2013,09,11,13,13,27.80
2013,09,11,13,14,27.80
2013,09,11,13,15,27.80
2013,09,11,13,16,27.80
2013,09,11,13,17,27.90
2013,09,11,13,18,27.90
2013,09,11,13,19,27.90
2013,09,11,13,20,27.90
2013,09,11,13,21,28.00
2013,09,11,13,22,27.90
2013,09,11,13,23,27.80
2013,09,11,13,24,27.80
2013,09,11,13,25,27.80
2013,09,11,13,26,27.80
2013,09,11,13,27,27.80
2013,09,11,13,28,27.80
2013,09,11,13,29,27.80
2013,09,11,13,30,27.80
2013,09,11,13,31,27.80
2013,09,11,13,32,27.70
2013,09,11,13,33,27.80
2013,09,11,13,34,27.90
2013,09,11,13,35,27.90
2013,09,11,13,36,28.00
2013,09,11,13,37,28.00
2013,09,11,13,38,28.10
2013,09,11,13,39,28.10
2013,09,11,13,40,28.10
2013,09,11,13,41,28.20
2013,09,11,13,42,28.20
2013,09,11,13,43,28.30
2013,09,11,13,44,28.40
2013,09,11,13,45,28.40
2013,09,11,13,46,28.40
2013,09,11,13,47,28.40
2013,09,11,13,48,28.40
2013,09,11,13,49,28.40
2013,09,11,13,50,28.40
2013,09,11,13,51,28.50
2013,09,11,13,52,28.60
2013,09,11,13,53,28.70
2013,09,11,13,54,28.70
2013,09,11,13,55,28.50
2013,09,11,13,56,28.40
2013,09,11,13,57,28.30
2013,09,11,13,58,28.40
2013,09,11,13,59,28.50
2013,09,11,14,00,28.60
2013,09,11,14,01,28.70
2013,09,11,14,02,28.70
2013,09,11,14,03,28.70
2013,09,11,14,04,28.70
2013,09,11,14,05,28.70
2013,09,11,14,06,28.80
2013,09,11,14,07,28.80
2013,09,11,14,08,28.80
2013,09,11,14,09,28.70
2013,09,11,14,10,28.70
2013,09,11,14,11,28.80
2013,09,11,14,12,28.80
2013,09,11,14,13,28.90
2013,09,11,14,14,28.90
2013,09,11,14,15,28.90
2013,09,11,14,16,29.00
2013,09,11,14,17,28.90
2013,09,11,14,18,28.90
2013,09,11,14,19,28.90
2013,09,11,14,20,28.90
2013,09,11,14,21,28.90
2013,09,11,14,22,28.90
2013,09,11,14,23,28.90
2013,09,11,14,24,28.90
2013,09,11,14,25,28.90
2013,09,11,14,26,28.90
2013,09,11,14,27,28.90
2013,09,11,14,28,28.90
2013,09,11,14,29,29.00
2013,09,11,14,30,29.10
2013,09,11,14,31,29.10
2013,09,11,14,32,29.20
2013,09,11,14,33,29.30
2013,09,11,14,34,29.30
2013,09,11,14,35,29.40
2013,09,11,14,36,29.40
2013,09,11,14,37,29.30
2013,09,11,14,38,29.20
2013,09,11,14,39,29.10
2013,09,11,14,40,29.10
2013,09,11,14,41,29.20
2013,09,11,14,42,29.30
2013,09,11,14,43,29.30
2013,09,11,14,44,29.40
2013,09,11,14,45,29.50
2013,09,11,14,46,29.60
2013,09,11,14,47,29.50
2013,09,11,14,48,29.60
2013,09,11,14,49,29.60
2013,09,11,14,50,29.60
2013,09,11,14,51,29.60
2013,09,11,14,52,29.70
2013,09,11,14,53,29.80
2013,09,11,14,54,29.80
2013,09,11,14,55,29.80
2013,09,11,14,56,29.80
2013,09,11,14,57,29.90
2013,09,11,14,58,30.10
2013,09,11,14,59,30.10
2013,09,11,15,00,30.20
2013,09,11,15,01,30.30
2013,09,11,15,02,30.30
2013,09,11,15,03,30.30
2013,09,11,15,04,30.40
2013,09,11,15,05,30.40
2013,09,11,15,06,30.30
2013,09,11,15,07,30.30
2013,09,11,15,08,30.30
2013,09,11,15,09,30.30
2013,09,11,15,10,30.30
2013,09,11,15,11,30.40
2013,09,11,15,12,30.60
2013,09,11,15,13,30.70
2013,09,11,15,14,30.80
2013,09,11,15,15,30.90
2013,09,11,15,16,30.90
2013,09,11,15,17,30.90
2013,09,11,15,18,31.00
2013,09,11,15,19,31.00
2013,09,11,15,20,30.90
2013,09,11,15,21,30.90
2013,09,11,15,22,30.90
2013,09,11,15,23,30.90
2013,09,11,15,24,30.90
2013,09,11,15,25,30.90
2013,09,11,15,26,30.90
2013,09,11,15,27,30.90
2013,09,11,15,28,30.90
2013,09,11,15,29,30.80
2013,09,11,15,30,30.60
2013,09,11,15,31,30.20
2013,09,11,15,32,30.00
2013,09,11,15,33,29.80
2013,09,11,15,34,29.60
2013,09,11,15,35,29.40
2013,09,11,15,36,29.20
2013,09,11,15,37,29.00
2013,09,11,15,38,28.70
2013,09,11,15,39,28.20
2013,09,11,15,40,27.60
2013,09,11,15,41,27.20
2013,09,11,15,42,26.80
2013,09,11,15,43,26.20
2013,09,11,15,44,25.80
2013,09,11,15,45,25.40
2013,09,11,15,46,25.10
2013,09,11,15,47,24.80
2013,09,11,15,48,24.50
2013,09,11,15,49,24.20
2013,09,11,15,50,24.00
2013,09,11,15,51,23.90
2013,09,11,15,52,23.80
2013,09,11,15,53,23.70
2013,09,11,15,54,23.70
2013,09,11,15,55,23.70
2013,09,11,15,56,23.80
2013,09,11,15,57,23.80
2013,09,11,15,58,23.90
2013,09,11,15,59,24.00
2013,09,11,16,00,24.10
2013,09,11,16,01,24.10
2013,09,11,16,02,24.10
2013,09,11,16,03,24.10
2013,09,11,16,04,24.20
2013,09,11,16,05,24.30
2013,09,11,16,06,24.40
2013,09,11,16,07,24.40
2013,09,11,16,08,24.50
2013,09,11,16,09,24.50
2013,09,11,16,10,24.50
2013,09,11,16,11,24.50
2013,09,11,16,12,24.50
2013,09,11,16,13,24.50
2013,09,11,16,14,24.50
2013,09,11,16,15,24.50
2013,09,11,16,16,24.40
2013,09,11,16,17,24.30
2013,09,11,16,18,24.20
2013,09,11,16,19,24.10
2013,09,11,16,20,24.10
2013,09,11,16,21,24.10
2013,09,11,16,22,24.10
2013,09,11,16,23,24.10
2013,09,11,16,24,24.10
2013,09,11,16,25,24.10
2013,09,11,16,26,24.00
2013,09,11,16,27,23.90
2013,09,11,16,28,23.80
2013,09,11,16,29,23.90
2013,09,11,16,30,23.90
2013,09,11,16,31,24.00
2013,09,11,16,32,24.10
2013,09,11,16,33,24.20
2013,09,11,16,34,24.30
2013,09,11,16,35,24.40
2013,09,11,16,36,24.50
2013,09,11,16,37,24.50
2013,09,11,16,38,24.50
2013,09,11,16,39,24.40
2013,09,11,16,40,24.30
2013,09,11,16,41,24.20
2013,09,11,16,42,24.10
2013,09,11,16,43,24.10
2013,09,11,16,44,24.10
2013,09,11,16,45,24.20
2013,09,11,16,46,24.20
2013,09,11,16,47,24.20
2013,09,11,16,48,24.20
2013,09,11,16,49,24.20
2013,09,11,16,50,24.20
2013,09,11,16,51,24.20
2013,09,11,16,52,24.10
2013,09,11,16,53,24.10
2013,09,11,16,54,24.10
2013,09,11,16,55,24.10
2013,09,11,16,56,24.10
2013,09,11,16,57,24.10
2013,09,11,16,58,24.10
2013,09,11,16,59,24.10
2013,09,11,17,00,24.20
2013,09,11,17,01,24.20
2013,09,11,17,02,24.30
2013,09,11,17,03,24.30
2013,09,11,17,04,24.30
2013,09,11,17,05,24.30
2013,09,11,17,06,24.30
2013,09,11,17,07,24.40
2013,09,11,17,08,24.40
2013,09,11,17,09,24.40
2013,09,11,17,10,24.40
2013,09,11,17,11,24.30
2013,09,11,17,12,24.30
2013,09,11,17,13,24.30
2013,09,11,17,14,24.30
2013,09,11,17,15,24.30
2013,09,11,17,16,24.30
2013,09,11,17,17,24.30
2013,09,11,17,18,24.30
2013,09,11,17,19,24.40